Location: Santa Giusta
(39.8800°N, 8.6069°E)
Time: 21:44:32
(UTC+00:00)

Meteor 1-11 Rocket - Visible Passes

Search period start: 26 February 2024 00:00
Search period end: 07 March 2024 00:00
Orbit: 831 x 914 km, 81.2° (Epoch: 25 February)

Date Brightness Start Highest point End Pass type
(mag) Time Alt. Az. Time Alt. Az. Time Alt. Az.
05 Mar 6.2 20:08:42 11° NNE 20:08:42 11° NNE 20:08:52 10° NNE visible
05 Mar 6.7 21:51:07 10° NNW 21:51:07 10° NNW 21:51:09 10° NNW visible
06 Mar 5.9 20:02:30 15° NNE 20:02:30 15° NNE 20:03:30 10° NNE visible
06 Mar 6.5 21:44:54 12° NNW 21:44:54 12° NNW 21:45:41 10° NNW visible
